Date String (YYYY-MM-DD hh:mm:ss) UTC,Instrument flags,absolute air pressure of the measurement (hPa),sample flow rate (lpm),inlet stack bypass flow (lpm),air temperature of the measurement (°C),ambient temperature measured by the external sensor (°C),aerosol sample conditioner tube jacket temperature (°C),OPC LED temperature (°C),internal box temperature (°C),relative humidity of the measurement (%),span deviation,mass concentration of particles derived from Lorenz-Mie calculation of OPC scattering (μg/m³),mass concentration of particles derived from Lorenz-Mie calculation of OPC scattering (μg/m³),mass concentration of particles derived from Lorenz-Mie calculation of OPC scattering (μg/m³)
DateTimeUTC,F1_M11,P_M11,Q1_M11,Q2_M11,T1_M11,T2_M11,T3_M11,T4_M11,T5_M11,U1_M11,ZSPAN_M11,X2_M11,X0_M11,X1_M11
2024-05-04 12:00:00,SystemResetWarning,0832.3,5.00,000.00,020.9,020.4,000.0,029.2,022.6,018.0,0000.0,0001.22,0002.34,0000.88
2024-05-04 12:01:00,SystemResetWarning,0832.4,5.00,000.00,020.9,020.4,000.0,029.2,022.7,017.8,0000.0,0001.19,0002.24,0000.87
2024-05-04 12:02:00,SystemResetWarning,0832.4,4.99,000.00,020.9,020.4,000.0,029.2,022.7,017.6,0000.0,0001.18,0002.16,0000.86
2024-05-04 12:03:00,SystemResetWarning,0832.5,5.00,000.00,020.9,020.4,000.0,029.2,022.7,017.6,0000.0,0001.12,0001.71,0000.84
2024-05-04 12:04:00,SystemResetWarning,0832.5,5.00,000.00,020.9,020.4,000.0,029.2,022.7,018.0,0000.0,0001.10,0001.69,0000.83
2024-05-04 12:05:00,SystemResetWarning,0832.5,5.00,000.00,021.0,020.5,000.0,029.3,022.7,018.0,0000.0,0001.09,0001.63,0000.82
2024-05-04 12:06:00,SystemResetWarning,0832.5,5.00,000.00,021.0,020.5,000.0,029.2,022.7,017.9,0000.0,0001.09,0001.63,0000.81
2024-05-04 12:07:00,SystemResetWarning,0832.6,5.01,000.00,021.0,020.5,000.0,029.2,022.7,018.0,0000.0,0001.05,0001.50,0000.81
2024-05-04 12:08:00,SystemResetWarning,0832.5,4.99,000.00,021.0,020.5,000.0,029.3,022.7,017.7,0000.0,0001.06,0001.60,0000.80
2024-05-04 12:09:00,SystemResetWarning,0832.5,4.98,000.00,021.0,020.5,000.0,029.3,022.7,017.6,0000.0,0001.04,0001.62,0000.78
2024-05-04 12:10:00,SystemResetWarning,0832.5,5.00,000.00,021.0,020.5,000.0,029.3,022.8,017.6,0000.0,0001.03,0001.64,0000.78
2024-05-04 12:11:00,SystemResetWarning,0832.5,5.01,000.00,021.0,020.5,000.0,029.3,022.8,017.7,0000.0,0001.04,0001.82,0000.78
2024-05-04 12:12:00,SystemResetWarning,0832.5,5.00,000.00,021.0,020.5,000.0,029.3,022.8,017.8,0000.0,0001.04,0001.95,0000.78
2024-05-04 12:13:00,SystemResetWarning,0832.5,5.00,000.00,021.0,020.5,000.0,029.3,022.8,017.9,0000.0,0001.07,0002.16,0000.77
2024-05-04 12:14:00,SystemResetWarning,0832.5,5.00,000.00,021.0,020.5,000.0,029.3,022.7,017.8,0000.0,0001.12,0002.27,0000.78
2024-05-04 12:15:00,SystemResetWarning,0832.5,5.00,000.00,021.0,020.5,000.0,029.3,022.8,017.8,0000.0,0001.13,0002.31,0000.79
2024-05-04 12:16:00,SystemResetWarning,0832.5,4.99,000.00,021.0,020.5,000.0,029.3,022.8,017.8,0000.0,0001.13,0002.28,0000.80
2024-05-04 12:17:00,SystemResetWarning,0832.5,5.00,000.00,021.0,020.5,000.0,029.3,022.8,017.8,0000.0,0001.13,0002.28,0000.80
2024-05-04 12:18:00,SystemResetWarning,0832.5,4.99,000.00,021.1,020.6,000.0,029.4,022.8,017.9,0000.0,0001.15,0002.33,0000.82
2024-05-04 12:19:00,SystemResetWarning,0832.5,5.00,000.00,021.1,020.6,000.0,029.3,022.8,017.9,0000.0,0001.14,0002.28,0000.82
2024-05-04 12:20:00,SystemResetWarning,0832.5,5.02,000.00,021.1,020.6,000.0,029.3,022.8,017.9,0000.0,0001.15,0002.20,0000.83
2024-05-04 12:21:00,SystemResetWarning,0832.6,4.99,000.00,021.1,020.6,000.0,029.4,022.8,017.9,0000.0,0001.14,0002.12,0000.83
2024-05-04 12:22:00,SystemResetWarning,0832.6,4.99,000.00,021.1,020.6,000.0,029.4,022.8,018.0,0000.0,0001.12,0001.95,0000.83
2024-05-04 12:23:00,SystemResetWarning,0832.6,4.99,000.00,021.1,020.6,000.0,029.4,022.8,018.1,0000.0,0001.12,0001.81,0000.84
2024-05-04 12:24:00,SystemResetWarning,0832.7,5.00,000.00,021.1,020.6,000.0,029.4,022.8,018.1,0000.0,0001.10,0001.64,0000.84
2024-05-04 12:25:00,SystemResetWarning,0832.6,5.01,000.00,021.1,020.6,000.0,029.4,022.8,018.1,0000.0,0001.07,0001.58,0000.85
2024-05-04 12:26:00,SystemResetWarning,0832.6,5.01,000.00,021.1,020.6,000.0,029.4,022.8,018.0,0000.0,0001.07,0001.54,0000.84
2024-05-04 12:27:00,SystemResetWarning,0832.6,5.01,000.00,021.1,020.6,000.0,029.4,022.8,018.0,0000.0,0001.10,0001.61,0000.84
2024-05-04 12:28:00,SystemResetWarning,0832.6,5.00,000.00,021.1,020.7,000.0,029.4,022.9,018.0,0000.0,0001.09,0001.61,0000.84
2024-05-04 12:29:00,SystemResetWarning,0832.6,4.99,000.00,021.2,020.7,000.0,029.4,022.9,018.1,0000.0,0001.07,0001.61,0000.83
2024-05-04 12:30:00,SystemResetWarning,0832.6,5.00,000.00,021.2,020.7,000.0,029.4,022.9,018.4,0000.0,0001.04,0002.38,0000.83
2024-05-04 12:31:00,SystemResetWarning,0832.5,5.00,000.00,021.2,020.7,000.0,029.4,022.9,018.4,0000.0,0001.02,0002.34,0000.82
2024-05-04 12:32:00,SystemResetWarning,0832.6,5.00,000.00,021.2,020.7,000.0,029.4,022.9,018.2,0000.0,0001.04,0002.40,0000.83
2024-05-04 12:33:00,SystemResetWarning,0832.6,5.00,000.00,021.2,020.7,000.0,029.4,022.9,018.2,0000.0,0001.06,0002.46,0000.83
2024-05-04 12:34:00,SystemResetWarning,0832.6,5.00,000.00,021.2,020.7,000.0,029.4,022.9,018.4,0000.0,0001.07,0002.49,0000.84
2024-05-04 12:35:00,SystemResetWarning,0832.6,5.00,000.00,021.2,020.7,000.0,029.5,022.9,018.5,0000.0,0001.07,0002.53,0000.84
2024-05-04 12:36:00,SystemResetWarning,0832.6,5.00,000.00,021.2,020.7,000.0,029.5,023.0,018.4,0000.0,0001.08,0003.93,0000.85
2024-05-04 12:37:00,SystemResetWarning,0832.6,5.00,000.00,021.2,020.7,000.0,029.5,023.0,018.4,0000.0,0001.10,0004.23,0000.85
2024-05-04 12:38:00,SystemResetWarning,0832.6,5.00,000.00,021.2,020.7,000.0,029.5,023.0,018.4,0000.0,0001.08,0004.15,0000.86
2024-05-04 12:39:00,SystemResetWarning,0832.6,5.01,000.00,021.2,020.7,000.0,029.5,023.0,018.4,0000.0,0001.10,0004.17,0000.87
2024-05-04 12:40:00,SystemResetWarning,0832.6,5.00,000.00,021.2,020.7,000.0,029.5,022.9,018.5,0000.0,0001.16,0004.27,0000.88
2024-05-04 12:41:00,SystemResetWarning,0832.6,5.00,000.00,021.2,020.7,000.0,029.5,022.9,018.5,0000.0,0001.17,0003.46,0000.88
2024-05-04 12:42:00,SystemResetWarning,0832.6,5.00,000.00,021.2,020.7,000.0,029.5,023.0,018.6,0000.0,0001.17,0003.45,0000.88
2024-05-04 12:43:00,SystemResetWarning,0832.7,5.00,000.00,021.2,020.7,000.0,029.5,023.0,018.7,0000.0,0001.17,0003.67,0000.88
2024-05-04 12:44:00,SystemResetWarning,0832.6,5.00,000.00,021.3,020.7,000.0,029.5,023.0,018.6,0000.0,0001.18,0003.79,0000.88
2024-05-04 12:45:00,SystemResetWarning,0832.6,4.99,000.00,021.3,020.8,000.0,029.5,023.0,018.6,0000.0,0001.21,0003.85,0000.88
2024-05-04 12:46:00,SystemResetWarning,0832.7,5.00,000.00,021.3,020.8,000.0,029.5,023.0,018.5,0000.0,0001.22,0003.83,0000.88
2024-05-04 12:47:00,SystemResetWarning,0832.7,4.99,000.00,021.3,020.8,000.0,029.5,023.0,018.6,0000.0,0001.22,0002.59,0000.87
2024-05-04 12:48:00,SystemResetWarning,0832.7,4.99,000.00,021.3,020.8,000.0,029.5,023.0,018.7,0000.0,0001.22,0002.36,0000.87
2024-05-04 12:49:00,SystemResetWarning,0832.7,5.00,000.00,021.3,020.8,000.0,029.5,023.0,018.8,0000.0,0001.24,0002.44,0000.87
2024-05-04 12:50:00,SystemResetWarning,0832.7,5.00,000.00,021.3,020.8,000.0,029.5,023.0,018.8,0000.0,0001.24,0002.44,0000.87
2024-05-04 12:51:00,SystemResetWarning,0832.7,5.01,000.00,021.3,020.8,000.0,029.6,023.0,018.8,0000.0,0001.22,0002.42,0000.87
2024-05-04 12:52:00,SystemResetWarning,0832.7,5.00,000.00,021.3,020.8,000.0,029.6,023.0,018.7,0000.0,0001.21,0002.45,0000.87
2024-05-04 12:53:00,SystemResetWarning,0832.7,5.00,000.00,021.3,020.8,000.0,029.6,023.0,018.8,0000.0,0001.24,0002.48,0000.88
2024-05-04 12:54:00,SystemResetWarning,0832.8,5.00,000.00,021.3,020.8,000.0,029.6,023.1,018.8,0000.0,0001.24,0002.74,0000.89
2024-05-04 12:55:00,SystemResetWarning,0832.8,5.00,000.00,021.3,020.8,000.0,029.6,023.1,019.0,0000.0,0001.25,0002.80,0000.89
2024-05-04 12:56:00,SystemResetWarning,0832.8,4.99,000.00,021.3,020.8,000.0,029.6,023.1,019.1,0000.0,0001.24,0002.79,0000.89
2024-05-04 12:57:00,SystemResetWarning,0832.8,4.99,000.00,021.3,020.8,000.0,029.6,023.1,019.0,0000.0,0001.22,0002.76,0000.90
2024-05-04 12:58:00,SystemResetWarning,0832.8,5.00,000.00,021.3,020.9,000.0,029.6,023.1,018.9,0000.0,0001.22,0002.76,0000.90
2024-05-04 12:59:00,SystemResetWarning,0832.8,5.00,000.00,021.4,020.9,000.0,029.6,023.1,018.8,0000.0,0001.19,0002.60,0000.91
